RYR33GT EIDW-EGCC

Flight info

Callsign RYR33GT
Flight time 0h 32m
Altitude 19000
Route BOFUM1E BOFUM Q37 MALUD
Aircraft B38M/M-SDE1FGHILORVWXY/HB1

Departure

Time 2026-05-06 22:33
Airport Dublin Airport (EIDW)

Arrival

Time 2026-05-06 23:05
Airport Manchester Airport (EGCC)
Time Latitude Longitude Altitude Speed Heading
2026-05-06 22:06 53.43010 -6.25009 218 ft 0 kts
2026-05-06 22:21 53.43004 -6.25010 213 ft 4 kts
2026-05-06 22:21 53.42977 -6.25014 217 ft 3 kts
2026-05-06 22:22 53.42959 -6.25013 213 ft 4 kts 317°
2026-05-06 22:22 53.42951 -6.24979 213 ft 2 kts 275°
2026-05-06 22:22 53.42949 -6.24941 213 ft 1 kts 275°
2026-05-06 22:27 53.42950 -6.24947 213 ft 2 kts 275°
2026-05-06 22:27 53.42953 -6.25014 217 ft 10 kts 276°
2026-05-06 22:28 53.42963 -6.25186 213 ft 18 kts 271°
2026-05-06 22:28 53.42905 -6.25390 216 ft 22 kts 225°
2026-05-06 22:28 53.42797 -6.25572 220 ft 21 kts 225°
2026-05-06 22:28 53.42704 -6.25726 213 ft 14 kts 217°
2026-05-06 22:29 53.42605 -6.25705 213 ft 17 kts 154°
2026-05-06 22:29 53.42499 -6.25758 220 ft 19 kts 226°
2026-05-06 22:29 53.42398 -6.25929 215 ft 22 kts 225°
2026-05-06 22:29 53.42288 -6.26129 213 ft 25 kts 238°
2026-05-06 22:30 53.42275 -6.26425 213 ft 27 kts 274°
2026-05-06 22:30 53.42290 -6.26731 213 ft 22 kts 275°
2026-05-06 22:30 53.42306 -6.27009 215 ft 25 kts 275°
2026-05-06 22:30 53.42322 -6.27317 213 ft 28 kts 275°
2026-05-06 22:31 53.42339 -6.27627 217 ft 24 kts 275°
2026-05-06 22:31 53.42354 -6.27896 217 ft 23 kts 275°
2026-05-06 22:31 53.42370 -6.28180 213 ft 25 kts 275°
2026-05-06 22:31 53.42308 -6.28323 214 ft 16 kts 169°
2026-05-06 22:32 53.42223 -6.28249 224 ft 8 kts 160°
2026-05-06 22:32 53.42194 -6.28132 214 ft 20 kts 95°
2026-05-06 22:32 53.42155 -6.27424 213 ft 100 kts 95°
2026-05-06 22:32 53.42064 -6.25903 253 ft 155 kts 99°
2026-05-06 22:33 53.41965 -6.24088 968 ft 156 kts 97°
2026-05-06 22:33 53.41869 -6.22291 1771 ft 159 kts 98°
2026-05-06 22:33 53.41765 -6.20412 2435 ft 169 kts 98°
2026-05-06 22:33 53.41651 -6.18341 2933 ft 189 kts 98°
2026-05-06 22:34 53.41523 -6.16037 3601 ft 204 kts 98°
2026-05-06 22:34 53.41388 -6.13596 4372 ft 216 kts 96°
2026-05-06 22:34 53.41251 -6.11087 5291 ft 220 kts 97°
2026-05-06 22:34 53.41103 -6.08435 5946 ft 238 kts 97°
2026-05-06 22:35 53.40944 -6.05560 6538 ft 258 kts 96°
2026-05-06 22:35 53.41017 -6.02445 7072 ft 279 kts 81°
2026-05-06 22:35 53.41612 -5.99295 7878 ft 285 kts 67°
2026-05-06 22:35 53.42397 -5.96217 8798 ft 290 kts 68°
2026-05-06 22:36 53.43184 -5.93077 9731 ft 294 kts 68°
2026-05-06 22:36 53.43968 -5.89923 10470 ft 302 kts 68°
2026-05-06 22:36 53.44791 -5.86591 11060 ft 316 kts 68°
2026-05-06 22:36 53.45642 -5.83133 11822 ft 323 kts 68°
2026-05-06 22:37 53.46505 -5.79623 12726 ft 328 kts 68°
2026-05-06 22:37 53.47381 -5.76050 13662 ft 334 kts 68°
2026-05-06 22:37 53.48270 -5.72418 14486 ft 339 kts 67°
2026-05-06 22:37 53.49170 -5.68733 15391 ft 342 kts 67°
2026-05-06 22:38 53.50077 -5.65012 16295 ft 347 kts 67°
2026-05-06 22:38 53.50992 -5.61254 17238 ft 348 kts 67°
2026-05-06 22:38 53.51907 -5.57491 18302 ft 346 kts 66°
2026-05-06 22:38 53.52823 -5.53715 18848 ft 351 kts 66°
2026-05-06 22:39 53.53549 -5.49831 18931 ft 347 kts 82°
2026-05-06 22:39 53.53556 -5.45800 18995 ft 346 kts 92°
2026-05-06 22:39 53.53488 -5.41759 18982 ft 345 kts 91°
2026-05-06 22:39 53.53410 -5.37717 18989 ft 345 kts 91°
2026-05-06 22:40 53.53321 -5.33676 19002 ft 345 kts 92°
2026-05-06 22:40 53.53224 -5.29644 19000 ft 345 kts 92°
2026-05-06 22:40 53.53123 -5.25614 18989 ft 345 kts 92°
2026-05-06 22:40 53.53020 -5.21576 18990 ft 345 kts 92°
2026-05-06 22:41 53.52796 -5.13566 18996 ft 345 kts 92°
2026-05-06 22:41 53.52671 -5.09534 19005 ft 345 kts 92°
2026-05-06 22:41 53.52546 -5.05511 18994 ft 345 kts 92°
2026-05-06 22:42 53.52420 -5.01492 18995 ft 345 kts 92°
2026-05-06 22:42 53.52293 -4.97465 18995 ft 345 kts 93°
2026-05-06 22:42 53.52164 -4.93447 19000 ft 345 kts 93°
2026-05-06 22:42 53.52034 -4.89425 18995 ft 344 kts 93°
2026-05-06 22:43 53.51903 -4.85402 18998 ft 344 kts 93°
2026-05-06 22:43 53.51770 -4.81376 18998 ft 344 kts 93°
2026-05-06 22:43 53.51637 -4.77354 19010 ft 344 kts 93°
2026-05-06 22:43 53.51502 -4.73339 19001 ft 344 kts 93°
2026-05-06 22:44 53.51366 -4.69319 19001 ft 344 kts 93°
2026-05-06 22:44 53.51228 -4.65296 19010 ft 344 kts 93°
2026-05-06 22:44 53.51091 -4.61326 19012 ft 345 kts 93°
2026-05-06 22:44 53.50951 -4.57298 19001 ft 345 kts 93°
2026-05-06 22:45 53.50809 -4.53281 19000 ft 345 kts 93°
2026-05-06 22:45 53.50666 -4.49258 19001 ft 345 kts 93°
2026-05-06 22:45 53.50522 -4.45239 19000 ft 345 kts 93°
2026-05-06 22:45 53.50376 -4.41227 19000 ft 345 kts 93°
2026-05-06 22:46 53.50229 -4.37205 19008 ft 345 kts 93°
2026-05-06 22:46 53.50081 -4.33183 19012 ft 345 kts 93°
2026-05-06 22:46 53.49931 -4.29150 19006 ft 345 kts 93°
2026-05-06 22:46 53.49780 -4.25135 19014 ft 345 kts 93°
2026-05-06 22:47 53.49627 -4.21113 19009 ft 345 kts 93°
2026-05-06 22:47 53.49473 -4.17090 19003 ft 345 kts 94°
2026-05-06 22:47 53.49318 -4.13077 19003 ft 345 kts 94°
2026-05-06 22:47 53.49162 -4.09061 19000 ft 344 kts 94°
2026-05-06 22:48 53.49007 -4.05107 19000 ft 344 kts 94°
2026-05-06 22:48 53.48849 -4.01108 19000 ft 343 kts 94°
2026-05-06 22:48 53.48676 -3.97114 18998 ft 343 kts 97°
2026-05-06 22:48 53.48058 -3.93258 19015 ft 342 kts 110°
2026-05-06 22:49 53.47273 -3.89472 19013 ft 343 kts 109°
2026-05-06 22:49 53.46504 -3.85719 18979 ft 336 kts 109°
2026-05-06 22:49 53.45747 -3.82050 18827 ft 327 kts 110°
2026-05-06 22:49 53.45006 -3.78468 18547 ft 324 kts 110°
2026-05-06 22:50 53.44275 -3.74919 18249 ft 321 kts 109°
2026-05-06 22:50 53.43568 -3.71434 17896 ft 319 kts 109°
2026-05-06 22:50 53.42856 -3.67923 17560 ft 316 kts 109°
2026-05-06 22:50 53.42151 -3.64444 17231 ft 313 kts 109°
2026-05-06 22:51 53.41453 -3.60993 16888 ft 312 kts 109°
2026-05-06 22:51 53.40753 -3.57538 16483 ft 313 kts 109°
2026-05-06 22:51 53.40044 -3.54044 16133 ft 320 kts 110°
2026-05-06 22:51 53.39322 -3.50491 15773 ft 325 kts 110°
2026-05-06 22:52 53.38589 -3.46886 15423 ft 326 kts 110°
2026-05-06 22:52 53.37860 -3.43303 15068 ft 324 kts 110°
2026-05-06 22:52 53.37134 -3.39736 14726 ft 323 kts 110°
2026-05-06 22:52 53.36407 -3.36167 14376 ft 321 kts 110°
2026-05-06 22:53 53.35689 -3.32644 14053 ft 319 kts 110°
2026-05-06 22:53 53.34985 -3.29191 13732 ft 316 kts 110°
2026-05-06 22:53 53.34276 -3.25721 13430 ft 315 kts 110°
2026-05-06 22:53 53.33568 -3.22255 13184 ft 315 kts 110°
2026-05-06 22:54 53.32857 -3.18789 13042 ft 314 kts 110°
2026-05-06 22:54 53.32148 -3.15328 12864 ft 315 kts 110°
2026-05-06 22:54 53.31432 -3.11844 12230 ft 316 kts 110°
2026-05-06 22:54 53.30722 -3.08401 11801 ft 307 kts 110°
2026-05-06 22:55 53.30037 -3.05114 11660 ft 293 kts 110°
2026-05-06 22:55 53.29379 -3.01948 11563 ft 285 kts 108°
2026-05-06 22:55 53.28939 -2.98714 11438 ft 287 kts 100°
2026-05-06 22:55 53.28585 -2.95355 11177 ft 298 kts 100°
2026-05-06 22:56 53.28225 -2.91913 10907 ft 302 kts 100°
2026-05-06 22:56 53.27861 -2.88452 10525 ft 304 kts 100°
2026-05-06 22:56 53.27492 -2.84979 10124 ft 302 kts 100°
2026-05-06 22:56 53.27128 -2.81591 9696 ft 299 kts 100°
2026-05-06 22:57 53.26765 -2.78180 9246 ft 295 kts 100°
2026-05-06 22:57 53.26415 -2.74839 8800 ft 288 kts 100°
2026-05-06 22:57 53.26076 -2.71580 8365 ft 282 kts 100°
2026-05-06 22:57 53.25846 -2.68368 7932 ft 276 kts 95°
2026-05-06 22:58 53.25683 -2.65208 7509 ft 271 kts 95°
2026-05-06 22:58 53.25533 -2.62083 7088 ft 269 kts 95°
2026-05-06 22:58 53.25387 -2.58983 6679 ft 267 kts 95°
2026-05-06 22:58 53.25192 -2.55928 6242 ft 262 kts 105°
2026-05-06 22:59 53.24370 -2.53269 5773 ft 257 kts 135°
2026-05-06 22:59 53.22863 -2.51857 5316 ft 247 kts 173°
2026-05-06 22:59 53.21217 -2.52234 4888 ft 240 kts 210°
2026-05-06 22:59 53.20089 -2.54147 4466 ft 238 kts 246°
2026-05-06 23:00 53.19916 -2.56838 4116 ft 238 kts 283°
2026-05-06 23:00 53.20795 -2.59142 3808 ft 242 kts 321°
2026-05-06 23:00 53.22362 -2.60073 3556 ft 245 kts
2026-05-06 23:00 53.23955 -2.59221 3339 ft 242 kts 40°
2026-05-06 23:01 53.24942 -2.57015 3213 ft 238 kts 68°
2026-05-06 23:01 53.25496 -2.54405 3098 ft 236 kts 78°
2026-05-06 23:01 53.25832 -2.51835 3066 ft 216 kts 80°
2026-05-06 23:01 53.26143 -2.49485 3088 ft 199 kts 79°
2026-05-06 23:02 53.26427 -2.47302 2977 ft 191 kts 79°
2026-05-06 23:02 53.26880 -2.45195 2745 ft 191 kts 62°
2026-05-06 23:02 53.27630 -2.43406 2583 ft 184 kts 55°
2026-05-06 23:02 53.28413 -2.41767 2320 ft 181 kts 54°
2026-05-06 23:03 53.29199 -2.40155 2074 ft 177 kts 54°
2026-05-06 23:03 53.29964 -2.38590 1829 ft 170 kts 55°
2026-05-06 23:03 53.30692 -2.37095 1597 ft 162 kts 54°
2026-05-06 23:03 53.31354 -2.35740 1398 ft 144 kts 56°
2026-05-06 23:04 53.31954 -2.34508 1173 ft 132 kts 55°
2026-05-06 23:04 53.32535 -2.33313 984 ft 132 kts 54°
2026-05-06 23:04 53.33132 -2.32128 797 ft 136 kts 52°
2026-05-06 23:04 53.33543 -2.31319 678 ft 138 kts 52°
2026-05-06 23:05 53.34141 -2.30063 449 ft 138 kts 52°
2026-05-06 23:05 53.34925 -2.28429 241 ft 131 kts 51°
2026-05-06 23:05 53.35373 -2.27492 260 ft 72 kts 51°
2026-05-06 23:05 53.35573 -2.27087 266 ft 10 kts 43°
2026-05-06 23:06 53.35630 -2.27092 268 ft 9 kts 320°
2026-05-06 23:06 53.35674 -2.27152 263 ft 16 kts 321°
2026-05-06 23:06 53.35773 -2.27140 255 ft 15 kts 50°
2026-05-06 23:06 53.35825 -2.27010 256 ft 14 kts 58°
2026-05-06 23:07 53.35868 -2.26905 256 ft 7 kts 50°
2026-05-06 23:07 53.35918 -2.26834 254 ft 12 kts 11°
2026-05-06 23:07 53.36000 -2.26800 250 ft 12 kts 46°
2026-05-06 23:07 53.36057 -2.26743 250 ft 8 kts 328°
2026-05-06 23:08 53.36073 -2.26768 250 ft 0 kts 306°
2026-05-06 23:08 53.36069 -2.26777 250 ft 1 kts 213°
2026-05-06 23:08 53.36015 -2.26787 250 ft 14 kts 203°
2026-05-06 23:08 53.35997 -2.26815 250 ft 0 kts 267°
2026-05-06 23:09 53.36012 -2.26840 250 ft 9 kts 314°
2026-05-06 23:09 53.36032 -2.26877 250 ft 2 kts 313°
2026-05-06 23:09 53.36036 -2.26885 250 ft 0 kts 313°